GW1738 Weather Reports


time (UTC)temp
F
wind
direction
speed
knots
gust
knots
rain 1hr
in
rain 24hr
in
rain mn
in
humidity
%
barometer
mb
20260510180320 82 196 0.0 1.7 0.00 0.00 0.00 40 1013.9
20260510175351 82 157 0.9 2.6 0.00 0.00 0.00 39 1014.1
20260510174333 81 280 0.0 3.5 0.00 0.00 0.00 42 1013.9
20260510173356 81 213 0.0 4.3 0.00 0.00 0.00 43 1014.0
20260510172334 82 100 0.9 2.6 0.00 0.00 0.00 40 1014.0
20260510171342 82 328 0.0 1.7 0.00 0.00 0.00 41 1014.1
20260510170344 81 102 0.0 1.7 0.00 0.00 0.00 45 1014.4
20260510165326 81 134 1.7 3.5 0.00 0.00 0.00 40 1014.4
20260510164359 81 99 0.0 3.5 0.00 0.00 0.00 40 1014.5
20260510163340 81 186 0.0 1.7 0.00 0.00 0.00 40 1014.7
20260510162322 81 159 0.0 1.7 0.00 0.00 0.00 39 1014.6
20260510161329 80 148 0.0 3.5 0.00 0.00 0.00 43 1014.7
20260510160331 80 355 0.9 1.7 0.00 0.00 0.00 45 1014.7
20260510155334 81 130 0.0 2.6 0.00 0.00 0.00 47 1014.7
20260510154338 80 173 0.0 3.5 0.00 0.00 0.00 47 1014.7
20260510153341 79 138 0.9 2.6 0.00 0.00 0.00 47 1014.8
20260510152324 78 277 0.0 0.9 0.00 0.00 0.00 54 1014.9
20260510151330 78 194 1.7 3.5 0.00 0.00 0.00 50 1015.0
20260510150330 77 41 0.9 2.6 0.00 0.00 0.00 56 1015.0
20260510145352 77 105 0.0 0.0 0.00 0.00 0.00 59 1014.9
20260510144332 76 61 0.0 1.7 0.00 0.00 0.00 56 1014.9
20260510143334 76 258 0.0 0.9 0.00 0.00 0.00 69 1014.8
20260510142337 75 273 0.0 0.0 0.00 0.00 0.00 59 1014.8
20260510141320 73 55 0.0 0.0 0.00 0.00 0.00 62 1014.7
20260510140342 72 113 0.0 0.0 0.00 0.00 0.00 72 1014.7
20260510135336 72 113 0.0 0.0 0.00 0.00 0.00 74 1014.7
20260510134338 71 113 0.0 0.0 0.00 0.00 0.00 80 1014.6
20260510133342 69 113 0.0 0.0 0.00 0.00 0.00 80 1014.5
20260510132324 68 91 0.0 0.0 0.00 0.00 0.00 82 1014.7
20260510131329 66 91 0.0 0.0 0.00 0.00 0.00 88 1014.7
20260510130330 65 91 0.0 0.0 0.00 0.00 0.00 90 1014.5
20260510125332 63 91 0.0 0.0 0.00 0.00 0.00 94 1014.4
20260510124332 61 91 0.0 0.0 0.00 0.00 0.00 96 1014.3
20260510123333 59 91 0.0 0.0 0.00 0.00 0.00 97 1014.4
20260510122317 57 91 0.0 0.0 0.00 0.00 0.00 98 1014.2
20260510121328 56 91 0.0 0.0 0.00 0.00 0.00 97 1014.1
20260510120331 55 91 0.0 0.0 0.00 0.00 0.00 97 1014.0
20260510115317 54 91 0.0 0.0 0.00 0.00 0.00 97 1013.9
20260510114352 54 91 0.0 0.0 0.00 0.00 0.00 97 1013.7
20260510113332 53 91 0.0 0.0 0.00 0.00 0.00 97 1013.7
20260510112336 53 91 0.0 0.0 0.00 0.00 0.00 97 1013.4
20260510111339 52 91 0.0 0.0 0.00 0.00 0.00 97 1013.3
20260510110340 52 91 0.0 0.0 0.00 0.00 0.00 96 1013.2
20260510105338 52 91 0.0 0.0 0.00 0.00 0.00 96 1012.9
20260510104342 52 91 0.0 0.0 0.00 0.00 0.00 96 1012.9
20260510103323 53 91 0.0 0.0 0.00 0.00 0.00 96 1012.8
20260510102326 53 91 0.0 0.0 0.00 0.00 0.00 96 1012.7
20260510101333 53 91 0.0 0.0 0.00 0.00 0.00 96 1012.6
20260510100331 53 91 0.0 0.0 0.00 0.00 0.00 96 1012.6
20260510095331 54 91 0.0 0.0 0.00 0.00 0.00 96 1012.2
20260510094334 54 91 0.0 0.0 0.00 0.00 0.00 95 1012.2
20260510093337 54 91 0.0 0.0 0.00 0.00 0.00 96 1012.0
20260510092339 55 91 0.0 0.0 0.00 0.00 0.00 95 1012.0
20260510091324 55 91 0.0 0.0 0.00 0.00 0.00 95 1011.9
20260510090328 55 91 0.0 0.0 0.00 0.00 0.00 95 1011.9
20260510085330 56 91 0.0 0.0 0.00 0.00 0.00 95 1011.8
20260510084335 56 91 0.0 0.0 0.00 0.00 0.00 95 1011.6
20260510083318 57 91 0.0 0.0 0.00 0.00 0.00 95 1011.7
20260510082329 57 91 0.0 0.9 0.00 0.00 0.00 95 1011.7
20260510081404 57 91 0.0 0.0 0.00 0.00 0.00 95 1011.7
20260510080342 58 91 0.0 0.0 0.00 0.00 0.00 95 1011.7
20260510075338 58 91 0.0 0.0 0.00 0.00 0.00 95 1011.5
20260510074320 58 91 0.0 0.0 0.00 0.00 0.00 95 1011.4
20260510073351 58 91 0.0 0.0 0.00 0.00 0.00 95 1011.3
20260510072316 59 91 0.0 0.0 0.00 0.00 0.00 95 1011.3
20260510071325 59 91 0.0 0.0 0.00 0.00 0.00 94 1011.3
20260510070329 59 91 0.0 0.0 0.00 0.00 0.00 95 1011.4
20260510065332 59 91 0.0 0.0 0.00 0.00 0.00 95 1011.2
20260510064317 59 91 0.0 0.0 0.00 0.00 0.00 94 1011.5
20260510063320 59 91 0.0 0.0 0.00 0.00 0.00 94 1011.3
20260510062324 59 91 0.0 0.0 0.00 0.00 0.00 95 1011.3
20260510061331 59 91 0.0 0.0 0.00 0.00 0.00 94 1011.5
20260510060359 59 91 0.0 0.0 0.00 0.00 0.00 94 1011.6
20260510055320 59 91 0.0 0.0 0.00 0.00 0.00 94 1011.7
20260510054323 59 91 0.0 0.0 0.00 0.00 0.00 94 1011.7
20260510053326 59 91 0.0 0.0 0.00 0.00 0.00 93 1011.8
20260510052330 59 91 0.0 0.0 0.00 0.00 0.00 93 1011.7
20260510051317 59 91 0.0 0.0 0.00 0.00 0.00 93 1011.7
20260510050318 59 91 0.0 0.0 0.00 0.00 0.00 92 1011.8
20260510045338 59 91 0.0 0.0 0.00 0.00 0.00 91 1011.8
20260510044326 60 91 0.0 0.0 0.00 0.00 0.00 92 1011.8
20260510043329 60 91 0.0 0.0 0.00 0.00 0.00 91 1011.7
20260510042358 60 91 0.0 0.0 0.00 0.00 0.00 91 1011.7
20260510041340 60 91 0.0 0.0 0.00 0.00 0.00 90 1011.7
20260510040343 60 91 0.0 0.0 0.00 0.00 0.00 90 1011.7
20260510035328 60 91 0.0 0.0 0.00 0.00 0.00 90 1011.5
20260510034332 60 91 0.0 0.0 0.00 0.00 0.00 90 1011.5
20260510033337 60 91 0.0 0.0 0.00 0.00 0.00 90 1011.4
20260510032338 60 91 0.0 0.0 0.00 0.00 0.00 89 1011.4
20260510031326 60 91 0.0 0.0 0.00 0.00 0.00 88 1011.3
20260510030329 61 91 0.0 0.0 0.00 0.00 0.00 88 1011.3
20260510025333 61 91 0.0 0.0 0.00 0.00 0.00 88 1011.3
20260510024356 61 91 0.0 0.0 0.00 0.00 0.00 87 1011.1
20260510023318 61 91 0.0 0.0 0.00 0.00 0.00 87 1011.0
20260510022322 61 91 0.0 0.0 0.00 0.00 0.00 87 1010.9
20260510021324 62 91 0.0 0.0 0.00 0.00 0.00 86 1010.8
20260510020328 62 91 0.0 0.0 0.00 0.00 0.00 85 1010.6
20260510015331 62 91 0.0 0.0 0.00 0.00 0.00 85 1010.5
20260510014334 62 91 0.0 0.0 0.00 0.00 0.00 84 1010.3
20260510013316 63 91 0.0 0.0 0.00 0.00 0.00 85 1010.4
20260510012339 63 91 0.0 0.0 0.00 0.00 0.00 84 1010.2
20260510011328 63 91 0.0 0.0 0.00 0.00 0.00 82 1010.1
20260510010329 64 91 0.0 0.0 0.00 0.00 0.00 82 1010.0
20260510005352 64 91 0.0 0.0 0.00 0.00 0.00 80 1009.8
20260510004333 65 91 0.0 0.0 0.00 0.00 0.00 79 1009.9
20260510003316 66 91 0.0 0.0 0.00 0.00 0.00 78 1009.7
20260510002355 66 91 0.0 0.0 0.00 0.00 0.00 77 1009.7
20260510001338 67 91 0.0 0.0 0.00 0.00 0.00 76 1009.6
20260510000337 68 91 0.0 0.0 0.00 0.00 0.00 76 1009.6
20260509235337 68 91 0.0 0.0 0.00 0.00 0.00 76 1009.5
20260509234339 69 91 0.0 0.0 0.00 0.00 0.00 73 1009.4
20260509233324 69 91 0.0 0.0 0.00 0.00 0.00 71 1009.1
20260509232328 70 91 0.0 0.0 0.00 0.00 0.00 72 1009.2
20260509231317 70 91 0.0 0.0 0.00 0.00 0.00 69 1009.3
20260509230340 70 91 0.0 0.9 0.00 0.00 0.00 70 1009.3
20260509225340 71 57 0.0 0.9 0.00 0.00 0.00 68 1009.1
20260509224323 71 189 0.0 0.0 0.00 0.00 0.00 68 1009.0
20260509223326 71 189 0.0 0.0 0.00 0.00 0.00 65 1009.2
20260509222330 72 189 0.0 0.9 0.00 0.00 0.00 64 1009.2
20260509221338 72 189 0.0 0.9 0.00 0.00 0.00 64 1009.2
20260509220343 72 189 0.0 0.9 0.00 0.00 0.00 61 1009.1
20260509215348 73 189 0.0 0.9 0.00 0.00 0.00 62 1009.2
20260509214331 73 189 0.0 0.9 0.00 0.00 0.00 61 1009.0
20260509213336 73 189 0.9 2.6 0.00 0.00 0.00 58 1009.0
20260509212321 74 199 0.9 1.7 0.00 0.00 0.00 61 1008.9
20260509211330 74 163 0.9 1.7 0.00 0.00 0.00 57 1008.7
20260509210335 74 308 0.0 2.6 0.00 0.00 0.00 55 1008.9
20260509205318 74 190 0.9 3.5 0.00 0.00 0.00 56 1008.8
20260509204337 73 242 0.9 2.6 0.00 0.00 0.00 60 1008.8
20260509203320 73 210 0.0 0.9 0.00 0.00 0.00 62 1008.8
20260509202326 73 197 0.0 0.9 0.00 0.00 0.00 60 1008.7
20260509201332 73 254 0.0 2.6 0.00 0.00 0.00 63 1008.9
20260509200334 72 151 0.9 1.7 0.00 0.00 0.00 62 1008.9
20260509195339 72 161 0.9 1.7 0.00 0.00 0.00 63 1009.0
20260509194322 72 176 0.9 2.6 0.00 0.00 0.00 59 1009.0
20260509193326 73 198 0.9 1.7 0.00 0.00 0.00 59 1009.2
20260509192328 73 209 0.0 2.6 0.00 0.00 0.00 57 1009.4
20260509191337 73 172 1.7 4.3 0.00 0.00 0.00 58 1009.5
20260509190338 72 101 0.0 1.7 0.00 0.00 0.00 60 1009.7
20260509185347 73 206 0.0 1.7 0.00 0.00 0.00 60 1009.9
20260509184357 73 306 0.9 4.3 0.00 0.00 0.00 54 1009.9
20260509183339 74 261 0.9 2.6 0.00 0.00 0.00 53 1010.0
20260509182322 74 88 0.0 3.5 0.00 0.00 0.00 57 1010.1
20260509181327 73 300 0.0 2.6 0.00 0.00 0.00 54 1010.2
20260509180332 74 134 0.9 1.7 0.00 0.00 0.00 56 1010.2